FW5486 Weather Reports


Display with metric or nautical units.
time (UTC)temp
F
wind
direction
speed
MPH
gust
MPH
rain 1hr
in
rain 24hr
in
rain mn
in
humidity
%
barometer
mb
20260903171048 90 88 2.0 5.0 0.00 0.04 0.00 67 1016.7
20260903170553 91 54 2.0 5.0 0.00 0.06 0.00 66 1016.7
20260903170312 91 350 2.0 6.0 0.00 0.07 0.00 66 1016.7
20260903165543 90 72 3.0 9.0 0.00 0.07 0.00 65 1016.6
20260903165042 90 111 2.0 9.0 0.00 0.08 0.00 67 1016.7
20260903164541 90 167 2.0 5.0 0.00 0.09 0.00 70 1016.6
20260903164042 89 112 3.0 7.0 0.00 0.09 0.00 67 1016.7
20260903163537 89 71 3.0 9.0 0.00 0.09 0.00 68 1016.7
20260903163038 89 107 3.0 9.0 0.00 0.09 0.00 66 1016.7
20260903162537 89 83 2.0 5.0 0.00 0.09 0.00 71 1016.9
20260903162037 88 355 2.0 7.0 0.00 0.09 0.00 70 1016.8
20260903161536 88 80 2.0 7.0 0.00 0.09 0.00 71 1016.8
20260903161037 88 76 1.0 5.0 0.00 0.09 0.00 72 1016.9
20260903160529 88 58 1.0 5.0 0.00 0.09 0.00 73 1016.8
20260903160026 88 58 2.0 5.0 0.00 0.09 0.00 73 1016.9
20260903155527 88 71 2.0 5.0 0.00 0.09 0.00 72 1016.9
20260903155028 89 82 1.0 7.0 0.00 0.09 0.00 71 1016.9
20260903154527 89 126 1.0 7.0 0.00 0.09 0.00 73 1017.0
20260903154029 88 126 2.0 7.0 0.00 0.09 0.00 71 1017.0
20260903153752 88 105 2.0 7.0 0.00 0.09 0.00 72 1017.0
20260903153018 88 38 1.0 5.0 0.00 0.09 0.00 76 1017.0
20260903152517 87 16 1.0 4.0 0.00 0.09 0.00 74 1017.0
20260903152020 88 97 1.0 3.0 0.00 0.09 0.00 72 1017.1
20260903152016 88 60 1.0 4.0 0.00 0.09 0.00 73 1017.1
20260903151634 87 125 0.0 2.0 0.00 0.09 0.00 76 1017.1
20260903150744 87 152 1.0 6.0 0.00 0.09 0.00 77 1017.0
20260903150010 87 152 2.0 6.0 0.00 0.09 0.00 78 1017.1
20260903145742 87 97 2.0 5.0 0.00 0.09 0.00 78 1017.1
20260903145240 87 42 2.0 4.0 0.00 0.09 0.00 76 1017.1
20260903144510 87 102 2.0 4.0 0.00 0.09 0.00 78 1017.0
20260903144012 86 123 2.0 6.0 0.00 0.09 0.00 80 1017.0
20260903143512 85 140 3.0 6.0 0.00 0.09 0.00 82 1017.1
20260903143506 86 91 2.0 6.0 0.00 0.09 0.00 81 1017.1
20260903142737 85 42 2.0 6.0 0.00 0.09 0.00 83 1017.1
20260903142007 85 67 2.0 6.0 0.00 0.09 0.00 84 1017.2
20260903141506 84 55 3.0 7.0 0.00 0.09 0.00 85 1017.2
20260903141010 84 37 3.0 7.0 0.00 0.09 0.00 85 1017.2
20260903140502 84 105 4.0 7.0 0.00 0.09 0.00 85 1017.2
20260903140234 83 98 3.0 7.0 0.00 0.09 0.00 86 1017.3
20260903135733 83 106 3.0 7.0 0.00 0.09 0.00 86 1017.3
20260903135004 83 119 3.0 7.0 0.00 0.09 0.00 87 1017.3
20260903134506 82 96 2.0 6.0 0.00 0.09 0.00 88 1017.4
20260903134236 82 98 2.0 6.0 0.00 0.09 0.00 88 1017.3
20260903133458 82 65 2.0 4.0 0.00 0.09 0.00 88 1017.3
20260903132959 82 82 2.0 4.0 0.00 0.09 0.00 91 1017.3
20260903132456 81 136 2.0 4.0 0.00 0.09 0.00 91 1017.4
20260903131955 80 130 2.0 4.0 0.00 0.09 0.00 91 1017.4
20260903131456 80 104 2.0 4.0 0.00 0.09 0.00 91 1017.4
20260903131228 80 98 3.0 4.0 0.00 0.09 0.00 91 1017.4
20260903130453 79 80 2.0 4.0 0.00 0.09 0.00 92 1017.4
20260903125954 79 74 2.0 4.0 0.00 0.09 0.00 93 1017.4
20260903125721 79 62 2.0 4.0 0.00 0.09 0.00 93 1017.3
20260903124949 78 118 2.0 4.0 0.00 0.09 0.00 94 1017.3
20260903124720 78 65 1.0 3.0 0.00 0.09 0.00 94 1017.3
20260903123947 78 90 2.0 3.0 0.00 0.09 0.00 94 1017.1
20260903123447 78 72 1.0 3.0 0.00 0.09 0.00 95 1017.1
20260903122946 77 93 1.0 2.0 0.00 0.09 0.00 95 1017.2
20260903122441 77 95 1.0 2.0 0.00 0.09 0.00 95 1017.1
20260903121939 77 94 1.0 2.0 0.00 0.09 0.00 95 1017.1
20260903121437 77 117 1.0 2.0 0.00 0.09 0.00 95 1017.1
20260903120934 76 117 0.0 1.0 0.00 0.09 0.00 95 1017.1
20260903120705 76 117 1.0 1.0 0.00 0.09 0.00 95 1017.0
20260903120203 76 117 0.0 2.0 0.00 0.09 0.00 95 1016.9
20260903120051 76 117 0.0 2.0 0.00 0.09 0.00 95 1016.9
20260903114931 76 117 1.0 2.0 0.00 0.09 0.00 95 1016.9
20260903114430 76 117 1.0 2.0 0.00 0.09 0.00 95 1016.8
20260903113928 76 117 1.0 2.0 0.00 0.09 0.00 95 1016.7
20260903113428 76 117 1.0 2.0 0.00 0.09 0.00 95 1016.7
20260903112924 76 117 0.0 2.0 0.00 0.09 0.00 95 1016.8
20260903112423 76 117 0.0 2.0 0.00 0.09 0.00 95 1016.8
20260903111925 76 117 0.0 2.0 0.00 0.09 0.00 94 1016.7
20260903111424 76 117 0.0 2.0 0.00 0.09 0.00 94 1016.6
20260903110923 76 117 0.0 2.0 0.00 0.09 0.00 94 1016.6
20260903110709 76 117 0.0 2.0 0.00 0.09 0.00 95 1016.6
20260903105917 76 117 0.0 2.0 0.00 0.09 0.00 95 1016.6
20260903105415 76 117 0.0 2.0 0.00 0.09 0.00 94 1016.4
20260903104913 76 117 1.0 2.0 0.00 0.09 0.00 94 1016.4
20260903104410 76 117 1.0 1.0 0.00 0.09 0.00 94 1016.4
20260903103912 76 117 0.0 1.0 0.00 0.09 0.00 94 1016.4
20260903103636 76 117 1.0 2.0 0.00 0.09 0.00 94 1016.3
20260903102903 76 117 1.0 2.0 0.00 0.09 0.00 94 1016.2
20260903102400 76 117 1.0 2.0 0.00 0.09 0.00 94 1016.2
20260903101858 76 117 1.0 2.0 0.00 0.09 0.00 94 1016.2
20260903101359 76 117 1.0 2.0 0.00 0.09 0.00 94 1016.1
20260903101124 76 117 1.0 2.0 0.00 0.09 0.00 94 1016.1
20260903100349 76 117 1.0 2.0 0.00 0.09 0.00 94 1016.0
20260903095848 76 117 0.0 2.0 0.00 0.09 0.00 94 1016.0
20260903095347 76 129 0.0 1.0 0.00 0.09 0.00 94 1016.0
20260903095119 76 129 0.0 2.0 0.00 0.09 0.00 94 1016.0
20260903094344 76 129 0.0 2.0 0.00 0.09 0.00 94 1016.0
20260903093843 76 129 0.0 2.0 0.00 0.09 0.00 94 1016.0
20260903093615 76 129 0.0 0.0 0.00 0.09 0.00 94 1015.9
20260903092842 76 129 0.0 2.0 0.00 0.09 0.00 94 1015.9
20260903092340 76 129 0.0 2.0 0.00 0.09 0.00 94 1015.9
20260903092111 77 129 0.0 2.0 0.00 0.09 0.00 94 1015.9
20260903091337 77 129 0.0 2.0 0.00 0.09 0.00 94 1015.9
20260903091106 77 129 0.0 2.0 0.00 0.09 0.00 94 1016.0
20260903090337 77 129 0.0 0.0 0.00 0.09 0.00 94 1015.9
20260903085836 77 129 0.0 0.0 0.00 0.09 0.00 94 1015.8
20260903085335 77 129 0.0 2.0 0.00 0.09 0.00 94 1015.9
20260903084834 77 129 0.0 2.0 0.00 0.09 0.00 94 1015.8
20260903084333 77 129 0.0 2.0 0.00 0.09 0.00 94 1015.8
20260903084329 77 129 0.0 2.0 0.00 0.09 0.00 94 1015.8
20260903083324 77 129 0.0 2.0 0.00 0.09 0.00 94 1015.7
20260903082822 77 129 0.0 2.0 0.00 0.09 0.00 94 1015.8
20260903082323 77 123 0.0 2.0 0.00 0.09 0.00 94 1015.7
20260903081819 77 123 1.0 2.0 0.00 0.09 0.00 94 1015.6
20260903081318 77 123 1.0 3.0 0.00 0.09 0.00 94 1015.7
20260903080819 77 123 1.0 3.0 0.00 0.09 0.00 94 1015.6
20260903080319 77 123 1.0 3.0 0.00 0.09 0.00 94 1015.6
20260903075816 77 123 1.0 3.0 0.00 0.09 0.00 94 1015.8
20260903075318 77 118 0.0 2.0 0.00 0.09 0.00 94 1015.9
20260903074811 77 120 0.0 2.0 0.00 0.09 0.00 94 1015.9
20260903074539 77 120 0.0 2.0 0.00 0.09 0.00 94 1015.9
20260903073807 77 120 0.0 0.0 0.00 0.09 0.00 94 1016.0
20260903073307 77 120 0.0 0.0 0.00 0.09 0.00 94 1015.9
20260903072807 77 120 0.0 0.0 0.00 0.09 0.00 94 1016.0
20260903072308 77 120 0.0 0.0 0.00 0.09 0.00 94 1015.9
20260903071802 77 120 0.0 0.0 0.00 0.09 0.00 93 1016.0
20260903071257 77 120 0.0 0.0 0.00 0.09 0.00 94 1016.0
20260903070757 77 120 0.0 0.0 0.00 0.09 0.00 94 1016.0
20260903070258 78 120 0.0 0.0 0.00 0.09 0.00 94 1016.1
20260903065757 78 120 0.0 0.0 0.00 0.09 0.00 93 1016.2
20260903065258 78 120 0.0 0.0 0.00 0.09 0.00 93 1016.1
20260903064253 78 120 0.0 0.0 0.00 0.09 0.00 93 1016.1
20260903063753 78 120 0.0 0.0 0.00 0.09 0.00 93 1016.1
20260903063526 78 120 0.0 0.0 0.00 0.09 0.00 93 1016.1
20260903063025 78 120 0.0 0.0 0.00 0.09 0.00 93 1016.2
20260903062253 78 120 0.0 0.0 0.00 0.09 0.00 93 1016.2
20260903061754 78 120 0.0 0.0 0.00 0.09 0.00 93 1016.3
20260903061521 78 120 0.0 0.0 0.00 0.09 0.00 93 1016.3
20260903060749 78 120 0.0 0.0 0.00 0.09 0.00 93 1016.4
20260903060249 78 120 0.0 0.0 0.00 0.09 0.00 93 1016.5
20260903055750 78 120 0.0 0.0 0.00 0.09 0.00 93 1016.5
20260903055249 78 120 0.0 0.0 0.00 0.09 0.00 93 1016.5
20260903054751 78 120 0.0 0.0 0.00 0.09 0.00 93 1016.6
20260903054245 78 120 0.0 1.0 0.00 0.09 0.00 93 1016.6
20260903053743 78 120 0.0 1.0 0.00 0.09 0.00 93 1016.6
20260903053242 78 120 0.0 0.0 0.00 0.09 0.00 93 1016.6
20260903052739 78 120 0.0 0.0 0.00 0.09 0.00 93 1016.6
20260903052240 78 120 0.0 2.0 0.00 0.09 0.00 93 1016.6
20260903051740 78 120 0.0 2.0 0.00 0.09 0.00 93 1016.6
20260903051241 78 120 1.0 2.0 0.00 0.09 0.00 93 1016.5
20260903050735 78 120 1.0 2.0 0.00 0.09 0.00 93 1016.6
20260903050236 78 120 1.0 3.0 0.00 0.09 0.00 93 1016.6
20260903045733 78 120 0.0 3.0 0.00 0.09 0.09 93 1016.7
20260903045233 78 120 1.0 4.0 0.00 0.09 0.09 93 1016.7
20260903044731 78 120 2.0 4.0 0.00 0.09 0.09 93 1016.8
20260903044231 78 125 2.0 3.0 0.00 0.09 0.09 93 1016.8
20260903043726 78 127 1.0 4.0 0.00 0.09 0.09 93 1016.8
20260903043226 78 112 2.0 4.0 0.00 0.09 0.09 93 1016.7
20260903042726 78 92 2.0 3.0 0.00 0.09 0.09 93 1016.8
20260903042227 78 92 1.0 2.0 0.00 0.09 0.09 93 1016.8
20260903041725 78 121 1.0 2.0 0.00 0.09 0.09 93 1016.9
20260903041224 78 88 0.0 2.0 0.00 0.09 0.09 93 1017.0
20260903040718 78 88 1.0 2.0 0.00 0.09 0.09 93 1017.0
20260903040217 78 88 1.0 2.0 0.00 0.09 0.09 93 1017.1
20260903035947 78 88 0.0 2.0 0.00 0.09 0.09 93 1017.1
20260903035449 78 88 1.0 2.0 0.00 0.09 0.09 93 1017.2
20260903034715 78 88 1.0 2.0 0.00 0.09 0.09 93 1017.1
20260903034214 78 88 1.0 2.0 0.00 0.09 0.09 93 1017.0
20260903033712 78 88 1.0 2.0 0.00 0.09 0.09 93 1017.1
20260903033445 79 88 0.0 2.0 0.00 0.09 0.09 92 1017.2
20260903032713 79 88 0.0 0.0 0.00 0.09 0.09 92 1017.2
20260903032211 79 88 0.0 0.0 0.00 0.09 0.09 92 1017.2
20260903031940 79 88 0.0 0.0 0.00 0.09 0.09 92 1017.2
20260903031208 79 88 0.0 0.0 0.00 0.09 0.09 92 1017.3
20260903030701 79 88 0.0 0.0 0.00 0.09 0.09 92 1017.2
20260903030201 79 88 0.0 0.0 0.00 0.09 0.09 92 1017.4
20260903025659 79 88 0.0 0.0 0.00 0.09 0.09 92 1017.3
20260903025156 79 88 0.0 0.0 0.00 0.09 0.09 92 1017.3
20260903024656 79 88 0.0 2.0 0.00 0.09 0.09 91 1017.2
20260903024150 79 88 0.0 2.0 0.00 0.09 0.09 91 1017.3
20260903023648 79 88 0.0 2.0 0.00 0.09 0.09 91 1017.2
20260903023147 79 88 0.0 0.0 0.00 0.09 0.09 91 1017.2
20260903022645 79 88 0.0 0.0 0.00 0.09 0.09 91 1017.2
20260903022144 79 88 0.0 0.0 0.00 0.09 0.09 91 1017.3
20260903021638 79 88 0.0 0.0 0.00 0.09 0.09 91 1017.2
20260903021137 80 88 0.0 1.0 0.00 0.09 0.09 91 1017.0
20260903020638 80 88 0.0 1.0 0.00 0.09 0.09 90 1016.8
20260903020133 80 88 0.0 2.0 0.00 0.09 0.09 90 1016.8
20260903015632 80 88 0.0 2.0 0.00 0.09 0.09 91 1016.6
20260903015127 80 88 0.0 2.0 0.00 0.09 0.09 90 1016.5
20260903014624 80 88 0.0 2.0 0.00 0.09 0.09 90 1016.4
20260903014122 80 87 0.0 2.0 0.00 0.09 0.09 90 1016.3
20260903013851 80 88 0.0 0.0 0.00 0.09 0.09 90 1016.2
20260903013121 80 88 0.0 0.0 0.00 0.09 0.09 89 1016.2
20260903012614 80 87 0.0 0.0 0.00 0.09 0.09 89 1015.9
20260903012114 80 87 0.0 0.0 0.00 0.09 0.09 89 1015.9
20260903011613 81 87 0.0 0.0 0.00 0.09 0.09 88 1015.9
20260903011115 81 87 0.0 0.0 0.00 0.09 0.09 88 1016.0
20260903010847 81 87 0.0 0.0 0.00 0.09 0.09 88 1015.9
20260903010116 81 87 0.0 0.0 0.00 0.09 0.09 88 1016.0
20260903005613 81 87 0.0 0.0 0.00 0.09 0.09 87 1015.9
20260903005341 81 87 0.0 1.0 0.00 0.09 0.09 87 1015.9
20260903004608 82 87 1.0 3.0 0.00 0.09 0.09 87 1016.0
20260903004105 82 87 2.0 3.0 0.00 0.09 0.09 86 1016.0
20260903003606 82 96 1.0 2.0 0.00 0.09 0.09 86 1015.9
20260903003338 82 96 0.0 2.0 0.00 0.09 0.09 86 1016.1
20260903002559 82 96 0.0 2.0 0.00 0.09 0.09 85 1016.2
20260903002058 83 96 0.0 2.0 0.00 0.09 0.09 85 1016.1
20260903001556 83 120 0.0 2.0 0.00 0.09 0.09 84 1016.1
20260903000554 83 120 0.0 2.0 0.00 0.09 0.09 83 1016.1
20260903000047 83 120 0.0 2.0 0.00 0.09 0.09 82 1016.0
20260902235817 83 120 0.0 2.0 0.00 0.09 0.09 82 1016.2
20260902235317 83 120 0.0 2.0 0.00 0.09 0.09 82 1016.1
20260902234817 83 120 0.0 2.0 0.00 0.09 0.09 82 1016.0
20260902234044 84 120 0.0 2.0 0.00 0.09 0.09 82 1016.1
20260902233544 84 120 0.0 3.0 0.00 0.09 0.09 82 1016.1
20260902233042 84 120 0.0 3.0 0.00 0.09 0.09 81 1016.2
20260902232536 84 120 1.0 4.0 0.00 0.09 0.09 81 1016.1
20260902232031 84 156 1.0 4.0 0.00 0.09 0.09 81 1016.1
20260902231533 84 147 1.0 2.0 0.00 0.09 0.09 80 1016.2
20260902231032 84 147 1.0 3.0 0.00 0.09 0.09 80 1016.3
20260902230531 84 148 1.0 3.0 0.00 0.09 0.09 79 1016.2
20260902230032 84 147 1.0 3.0 0.00 0.09 0.09 79 1016.2
20260902225532 84 126 1.0 3.0 0.00 0.09 0.09 80 1016.3
20260902225259 84 170 1.0 2.0 0.00 0.09 0.09 79 1016.1
20260902224527 85 169 1.0 3.0 0.00 0.09 0.09 79 1016.2
20260902224028 85 164 1.0 4.0 0.00 0.09 0.09 78 1016.3
20260902223528 85 160 1.0 4.0 0.00 0.09 0.09 78 1016.1
20260902223027 85 119 1.0 4.0 0.00 0.09 0.09 78 1016.2
20260902222529 85 91 2.0 4.0 0.00 0.09 0.09 77 1016.3
20260902222028 85 115 2.0 4.0 0.00 0.09 0.09 76 1016.2
20260902221527 85 133 1.0 5.0 0.00 0.09 0.09 76 1016.2
20260902221027 85 146 0.0 5.0 0.00 0.09 0.09 76 1016.3
20260902220528 85 155 0.0 2.0 0.00 0.09 0.09 77 1016.2
20260902220028 85 155 0.0 2.0 0.00 0.09 0.09 76 1016.4
20260902215526 85 156 0.0 2.0 0.00 0.09 0.09 75 1016.4
20260902215025 85 156 0.0 2.0 0.00 0.09 0.09 76 1016.5
20260902214522 85 156 0.0 2.0 0.00 0.09 0.09 77 1016.5
20260902214020 85 156 0.0 2.0 0.00 0.09 0.09 77 1016.6
20260902213519 85 249 0.0 2.0 0.00 0.09 0.09 75 1016.7
20260902213020 84 249 0.0 2.0 0.00 0.09 0.09 78 1016.7
20260902212521 84 249 0.0 2.0 0.00 0.10 0.09 77 1016.8
20260902212245 84 249 0.0 3.0 0.00 0.10 0.09 78 1016.8
20260902211510 84 249 0.0 3.0 0.00 0.10 0.09 79 1016.7
20260902211010 83 273 0.0 2.0 0.00 0.10 0.09 79 1016.8
20260902210508 83 273 0.0 2.0 0.00 0.10 0.09 79 1016.9
20260902210016 83 274 0.0 2.0 0.00 0.10 0.09 80 1016.9
20260902205502 83 267 0.0 2.0 0.00 0.10 0.09 79 1017.0
20260902205000 83 267 0.0 2.0 0.00 0.10 0.09 80 1017.0
20260902204457 83 252 0.0 1.0 0.00 0.10 0.09 82 1017.0
20260902203956 83 220 0.0 0.0 0.00 0.10 0.09 81 1017.0
20260902203457 83 219 0.0 0.0 0.00 0.10 0.09 81 1017.1
20260902202958 83 220 0.0 0.0 0.00 0.10 0.09 81 1017.2
20260902202451 83 219 0.0 2.0 0.00 0.10 0.09 81 1017.4
20260902201952 83 220 0.0 2.0 0.00 0.10 0.09 81 1017.4
20260902201723 83 220 0.0 2.0 0.00 0.10 0.09 80 1017.3
20260902200952 83 219 0.0 2.0 0.00 0.10 0.09 80 1017.3
20260902200724 83 205 0.0 2.0 0.00 0.10 0.09 78 1017.4
20260902195951 83 267 0.0 2.0 0.00 0.10 0.09 78 1017.4
20260902195722 83 267 1.0 2.0 0.00 0.10 0.09 79 1017.3
20260902194948 83 261 0.0 2.0 0.00 0.10 0.09 80 1017.2
20260902194448 84 261 0.0 2.0 0.00 0.10 0.09 80 1017.3
20260902193948 84 207 0.0 2.0 0.00 0.10 0.09 78 1017.4
20260902193446 84 231 0.0 5.0 0.00 0.10 0.09 78 1017.5
20260902192945 84 136 0.0 5.0 0.00 0.10 0.09 79 1017.7
20260902192439 84 202 0.0 3.0 0.00 0.10 0.09 80 1017.8
20260902191938 84 217 0.0 2.0 0.00 0.10 0.09 80 1017.8
20260902191710 84 207 0.0 3.0 0.00 0.10 0.09 79 1017.7
20260902190939 84 164 2.0 9.0 0.00 0.10 0.09 78 1017.7
20260902190712 84 181 2.0 9.0 0.00 0.10 0.09 77 1017.7
20260902185941 84 216 1.0 7.0 0.00 0.10 0.09 77 1017.7
20260902185433 85 150 3.0 12.0 0.00 0.10 0.09 78 1017.8
20260902185207 85 212 3.0 12.0 0.00 0.10 0.09 76 1017.9
20260902184433 85 190 2.0 7.0 0.00 0.10 0.09 77 1018.0
20260902183933 85 173 3.0 10.0 0.00 0.10 0.09 79 1018.0
20260902183433 85 143 4.0 10.0 0.00 0.10 0.09 79 1017.7
20260902182934 85 158 4.0 12.0 0.00 0.10 0.09 80 1017.6
20260902182431 85 161 3.0 12.0 0.00 0.10 0.09 81 1017.6
20260902182202 84 149 2.0 7.0 0.00 0.10 0.09 82 1017.7
20260902182052 83 140 1.0 6.0 0.01 0.10 0.09 83 1017.5
20260902180929 82 128 1.0 4.0 0.05 0.10 0.09 85 1017.6
20260902180428 81 120 1.0 4.0 0.07 0.10 0.09 85 1017.7
20260902175927 81 140 1.0 2.0 0.07 0.10 0.09 88 1017.8
20260902175421 80 188 1.0 2.0 0.07 0.10 0.09 89 1018.0
20260902174919 80 80 1.0 3.0 0.09 0.10 0.09 87 1018.1
20260902174418 79 80 2.0 3.0 0.09 0.10 0.09 87 1018.1
20260902173916 79 79 2.0 4.0 0.09 0.10 0.09 87 1018.1
20260902173415 79 75 2.0 4.0 0.09 0.10 0.09 89 1018.1
20260902172913 79 79 3.0 5.0 0.09 0.10 0.09 87 1018.1
20260902172642 78 96 5.0 14.0 0.09 0.11 0.09 87 1018.0
20260902171910 78 93 8.0 14.0 0.09 0.11 0.09 86 1018.3